User: anonymous   Login
Location: Newark
(43.0000°N, 1.6781°W)
Time: 10:44:23
(UTC+00:00)
Language:

Vanguard 2 Rocket - Orbit

View from above orbital plane
View from above orbital plane
View from above satellite
View from above satellite

Ground track
Ground track

The orbit data is extracted from the following two-line orbital elements,

1 00012U 59001B   22269.43646383  .00000080  00000-0  46979-4 0  9993
2 00012  32.9010 322.8085 1665029 125.9013 250.7803 11.44695750375190
Epoch (UTC): 26 September 2022 10:28:30
Eccentricity: 0.1665029
inclination: 32.9010°
perigee height: 553 km
apogee height: 3323 km
right ascension of ascending node: 322.8085°
argument of perigee: 125.9013°
revolutions per day: 11.44695750
mean anomaly at epoch: 250.7803°
orbit number at epoch: 37519

The dashed part of the orbit path shows where the satellite is in the earth's shadow,  

DLR